QPF
0.02 0.01 0.01 0.02 0.01 0.01 0.01 0.01 0.01 0.01 0.01 0.01 0.01 0.01 0.01 0.01 0.01 0.02 0.02 0.01 0.01 0.01 0.02 0.02 0.03 0.03 0.04 0.05 0.05 0.04 0.04 0.04 0.03 0.03 0.02 0.01 0.01 0.01 0.01 0.00 0.01 0.01 0.01
0.02 0.02 0.01 0.02 0.01 0.01 0.01 0.01 0.01 0.01 0.01 0.01 0.02 0.03 0.02 0.01 0.01 0.01 0.01 0.01 0.01 0.01 0.01 0.02 0.03 0.04 0.04 0.05 0.07 0.08 0.07 0.07 0.06 0.04 0.03 0.02 0.02 0.01 0.01 0.01 0.01 0.02 0.02
0.02 0.02 0.01 0.01 0.01 0.01 0.01 0.02 0.01 0.01 0.02 0.02 0.02 0.02 0.01 0.01 0.01 0.01 0.01 0.01 0.01 0.01 0.01 0.01 0.02 0.03 0.03 0.04 0.06 0.09 0.09 0.09 0.09 0.07 0.06 0.04 0.03 0.02 0.02 0.02 0.02 0.02 0.03
0.01 0.01 0.01 0.01 0.01 0.01 0.01 0.01 0.01 0.01 0.01 0.02 0.01 0.01 0.01 0.01 0.01 0.02 0.01 0.01 0.01 0.01 0.01 0.01 0.01 0.02 0.03 0.03 0.04 0.06 0.08 0.08 0.08 0.07 0.07 0.06 0.05 0.03 0.02 0.03 0.03 0.04 0.04
0.01 0.01 0.01 0.01 0.01 0.01 0.01 0.01 0.02 0.02 0.01 0.01 0.01 0.01 0.01 0.01 0.01 0.01 0.01 0.01 0.01 0.01 0.01 0.01 0.01 0.01 0.03 0.04 0.04 0.05 0.08 0.09 0.09 0.07 0.06 0.06 0.06 0.04 0.03 0.03 0.03 0.04 0.05
0.01 0.01 0.01 0.01 0.01 0.01 0.01 0.01 0.02 0.03 0.02 0.01 0.01 0.01 0.01 0.01 0.01 0.01 0.01 0.01 0.01 0.02 0.02 0.01 0.01 0.01 0.03 0.02 0.04 0.05 0.07 0.09 0.10 0.08 0.06 0.05 0.04 0.03 0.03 0.02 0.03 0.04 0.06
0.01 0.01 0.01 0.01 0.01 0.01 0.01 0.02 0.02 0.02 0.02 0.01 0.01 0.01 0.00 0.01 0.01 0.01 0.01 0.01 0.01 0.02 0.02 0.01 0.01 0.01 0.01 0.01 0.03 0.04 0.06 0.06 0.08 0.08 0.08 0.07 0.06 0.05 0.04 0.03 0.03 0.03 0.03
0.01 0.01 0.01 0.01 0.01 0.01 0.01 0.02 0.02 0.02 0.01 0.01 0.01 0.01 0.01 0.01 0.02 0.01 0.01 0.01 0.01 0.01 0.02 0.02 0.01 0.01 0.01 0.01 0.03 0.03 0.03 0.04 0.05 0.05 0.06 0.07 0.06 0.06 0.06 0.06 0.05 0.05 0.04
0.02 0.02 0.02 0.02 0.02 0.01 0.01 0.01 0.02 0.02 0.01 0.01 0.01 0.01 0.02 0.02 0.02 0.02 0.01 0.00 0.00 0.01 0.02 0.02 0.01 0.01 0.01 0.02 0.02 0.02 0.02 0.03 0.04 0.04 0.04 0.06 0.06 0.05 0.06 0.06 0.05 0.05 0.05
0.02 0.02 0.02 0.02 0.02 0.02 0.01 0.02 0.02 0.02 0.01 0.01 0.01 0.01 0.02 0.02 0.02 0.02 0.01 0.00 0.00 0.01 0.01 0.03 0.03 0.02 0.03 0.02 0.02 0.01 0.01 0.02 0.03 0.03 0.03 0.05 0.05 0.05 0.06 0.06 0.05 0.04 0.05
0.02 0.02 0.02 0.01 0.01 0.01 0.01 0.02 0.02 0.02 0.02 0.02 0.01 0.01 0.01 0.01 0.01 0.02 0.01 0.01 0.01 0.01 0.01 0.02 0.02 0.03 0.03 0.02 0.02 0.01 0.01 0.02 0.03 0.03 0.03 0.04 0.05 0.04 0.04 0.04 0.04 0.04 0.05
0.02 0.02 0.02 0.02 0.01 0.01 0.01 0.01 0.01 0.01 0.01 0.01 0.01 0.01 0.01 0.01 0.01 0.01 0.01 0.01 0.01 0.01 0.01 0.01 0.02 0.02 0.01 0.01 0.01 0.01 0.02 0.03 0.03 0.03 0.03 0.03 0.04 0.04 0.03 0.03 0.04 0.03 0.03
0.03 0.02 0.02 0.02 0.01 0.02 0.02 0.01 0.01 0.01 0.01 0.01 0.01 0.00 0.01 0.01 0.01 0.01 0.01 0.01 0.01 0.01 0.01 0.01 0.02 0.02 0.02 0.01 0.01 0.01 0.01 0.02 0.02 0.02 0.02 0.02 0.02 0.03 0.04 0.05 0.07 0.04 0.04
0.02 0.02 0.02 0.01 0.01 0.02 0.02 0.02 0.02 0.02 0.01 0.01 0.01 0.01 0.01 0.01 0.00 0.01 0.01 0.01 0.01 0.01 0.01 0.01 0.01 0.02 0.02 0.01 0.01 0.01 0.01 0.01 0.01 0.01 0.01 0.01 0.02 0.04 0.05 0.09 0.09 0.06 0.05
0.02 0.02 0.01 0.01 0.02 0.01 0.01 0.01 0.02 0.02 0.02 0.01 0.01 0.01 0.01 0.01 0.01 0.01 0.01 0.01 0.01 0.01 0.01 0.01 0.02 0.01 0.02 0.01 0.01 0.01 0.01 0.01 0.01 0.01 0.01 0.01 0.02 0.03 0.05 0.11 0.11 0.06 0.05
0.03 0.02 0.02 0.01 0.01 0.01 0.01 0.01 0.02 0.01 0.01 0.01 0.01 0.01 0.01 0.01 0.01 0.01 0.01 0.01 0.01 0.01 0.01 0.01 0.02 0.02 0.01 0.01 0.01 0.00 0.01 0.01 0.01 0.01 0.01 0.01 0.02 0.03 0.03 0.05 0.07 0.06 0.05
0.03 0.02 0.02 0.01 0.01 0.01 0.01 0.01 0.01 0.01 0.00 0.00 0.01 0.01 0.01 0.01 0.01 0.01 0.02 0.02 0.01 0.01 0.01 0.01 0.02 0.02 0.02 0.01 0.01 0.01 0.01 0.01 0.01 0.01 0.01 0.01 0.01 0.03 0.03 0.02 0.03 0.04 0.04
0.02 0.02 0.02 0.01 0.01 0.02 0.02 0.02 0.01 0.01 0.01 0.00 0.00 0.01 0.01 0.01 0.01 0.02 0.02 0.02 0.02 0.02 0.02 0.02 0.02 0.03 0.03 0.02 0.02 0.01 0.01 0.01 0.01 0.01 0.01 0.01 0.01 0.02 0.03 0.02 0.02 0.02 0.03
0.01 0.02 0.02 0.02 0.02 0.01 0.01 0.01 0.01 0.00 0.00 0.00 0.00 0.01 0.01 0.01 0.02 0.02 0.02 0.02 0.02 0.03 0.03 0.02 0.03 0.04 0.04 0.03 0.03 0.03 0.02 0.02 0.02 0.01 0.01 0.01 0.01 0.03 0.03 0.02 0.02 0.02 0.02
0.02 0.02 0.02 0.03 0.03 0.02 0.01 0.01 0.01 0.01 0.00 0.00 0.00 0.01 0.01 0.01 0.01 0.01 0.01 0.02 0.02 0.03 0.03 0.03 0.03 0.05 0.06 0.05 0.04 0.03 0.03 0.02 0.02 0.02 0.02 0.01 0.01 0.01 0.02 0.02 0.02 0.02 0.01
0.02 0.02 0.02 0.02 0.02 0.02 0.01 0.01 0.01 0.01 0.00 0.00 0.00 0.01 0.01 0.01 0.01 0.01 0.01 0.02 0.02 0.03 0.04 0.04 0.03 0.04 0.05 0.06 0.04 0.04 0.03 0.02 0.02 0.02 0.02 0.02 0.02 0.02 0.02 0.02 0.02 0.02 0.02
0.01 0.01 0.01 0.01 0.02 0.02 0.01 0.01 0.01 0.00 0.00 0.00 0.00 0.01 0.01 0.01 0.01 0.01 0.01 0.02 0.03 0.04 0.05 0.06 0.05 0.06 0.06 0.06 0.05 0.04 0.03 0.02 0.02 0.02 0.03 0.03 0.03 0.02 0.02 0.03 0.03 0.03 0.02
0.01 0.01 0.01 0.01 0.01 0.01 0.02 0.01 0.01 0.00 0.00 0.00 0.00 0.00 0.01 0.01 0.01 0.01 0.02 0.03 0.03 0.04 0.05 0.07 0.07 0.07 0.07 0.06 0.05 0.05 0.04 0.03 0.03 0.03 0.03 0.03 0.02 0.02 0.02 0.02 0.02 0.02 0.02
0.01 0.01 0.01 0.01 0.01 0.01 0.01 0.01 0.01 0.01 0.00 0.00 0.00 0.00 0.01 0.01 0.01 0.01 0.02 0.02 0.03 0.04 0.04 0.05 0.07 0.07 0.07 0.07 0.06 0.05 0.04 0.03 0.03 0.03 0.03 0.03 0.03 0.02 0.01 0.01 0.01 0.01 0.02
0.01 0.02 0.01 0.01 0.01 0.01 0.01 0.01 0.01 0.01 0.01 0.01 0.01 0.01 0.01 0.01 0.01 0.01 0.02 0.03 0.03 0.03 0.04 0.05 0.05 0.05 0.05 0.05 0.05 0.04 0.04 0.04 0.03 0.03 0.02 0.02 0.02 0.01 0.01 0.01 0.01 0.01 0.02
0.01 0.01 0.01 0.02 0.02 0.02 0.02 0.02 0.02 0.02 0.01 0.01 0.01 0.01 0.01 0.01 0.01 0.01 0.02 0.03 0.03 0.03 0.04 0.06 0.06 0.04 0.04 0.03 0.03 0.02 0.02 0.02 0.02 0.02 0.02 0.02 0.02 0.01 0.01 0.01 0.01 0.01 0.02
MSLP
1016.93 1017.27 1017.63 1017.97 1018.23 1018.39 1018.45 1018.42 1018.33 1018.21 1018.10 1018.04 1018.03 1018.08 1018.18 1018.33 1018.48 1018.62 1018.74 1018.80 1018.81 1018.77 1018.68 1018.57 1018.46 1018.38 1018.37 1018.47 1018.70 1019.06 1019.56 1020.15 1020.81 1021.48 1022.09 1022.58 1022.92 1023.08 1023.05 1022.86 1022.55 1022.17 1021.78
1016.49 1016.79 1017.10 1017.39 1017.61 1017.75 1017.81 1017.79 1017.72 1017.65 1017.59 1017.56 1017.60 1017.69 1017.83 1018.01 1018.19 1018.36 1018.49 1018.57 1018.60 1018.57 1018.49 1018.39 1018.28 1018.21 1018.20 1018.31 1018.55 1018.93 1019.45 1020.08 1020.80 1021.53 1022.23 1022.82 1023.27 1023.54 1023.63 1023.55 1023.33 1023.03 1022.69
1016.00 1016.28 1016.56 1016.80 1016.99 1017.10 1017.15 1017.15 1017.11 1017.08 1017.07 1017.10 1017.19 1017.34 1017.52 1017.73 1017.94 1018.14 1018.30 1018.41 1018.46 1018.46 1018.41 1018.34 1018.26 1018.22 1018.24 1018.36 1018.60 1018.98 1019.50 1020.14 1020.86 1021.61 1022.34 1022.98 1023.49 1023.85 1024.03 1024.05 1023.94 1023.73 1023.47
1015.47 1015.75 1016.01 1016.23 1016.39 1016.48 1016.52 1016.53 1016.53 1016.54 1016.58 1016.68 1016.83 1017.02 1017.25 1017.50 1017.74 1017.96 1018.15 1018.29 1018.37 1018.41 1018.41 1018.38 1018.35 1018.34 1018.39 1018.53 1018.77 1019.14 1019.63 1020.23 1020.91 1021.62 1022.33 1022.97 1023.51 1023.92 1024.18 1024.29 1024.28 1024.18 1024.02
1014.88 1015.19 1015.45 1015.66 1015.80 1015.89 1015.94 1015.96 1015.99 1016.05 1016.14 1016.29 1016.49 1016.73 1017.00 1017.27 1017.54 1017.78 1017.99 1018.15 1018.27 1018.35 1018.39 1018.42 1018.44 1018.48 1018.57 1018.71 1018.95 1019.28 1019.72 1020.25 1020.85 1021.49 1022.14 1022.74 1023.28 1023.71 1024.03 1024.23 1024.33 1024.35 1024.30
1014.20 1014.55 1014.85 1015.07 1015.22 1015.32 1015.38 1015.43 1015.49 1015.59 1015.73 1015.92 1016.17 1016.44 1016.73 1017.02 1017.30 1017.55 1017.77 1017.95 1018.10 1018.21 1018.30 1018.38 1018.45 1018.54 1018.65 1018.81 1019.03 1019.32 1019.69 1020.13 1020.63 1021.18 1021.75 1022.30 1022.80 1023.25 1023.62 1023.90 1024.10 1024.24 1024.32
1013.40 1013.82 1014.16 1014.41 1014.59 1014.71 1014.80 1014.88 1014.98 1015.12 1015.30 1015.53 1015.80 1016.09 1016.39 1016.69 1016.96 1017.21 1017.44 1017.63 1017.80 1017.94 1018.08 1018.20 1018.32 1018.44 1018.58 1018.74 1018.94 1019.19 1019.49 1019.85 1020.26 1020.71 1021.20 1021.69 1022.17 1022.62 1023.02 1023.38 1023.67 1023.92 1024.12
1012.45 1012.94 1013.33 1013.63 1013.85 1014.01 1014.14 1014.26 1014.40 1014.57 1014.79 1015.04 1015.33 1015.63 1015.93 1016.22 1016.49 1016.73 1016.95 1017.15 1017.33 1017.51 1017.68 1017.84 1018.00 1018.17 1018.33 1018.50 1018.69 1018.90 1019.15 1019.44 1019.77 1020.15 1020.57 1021.02 1021.47 1021.93 1022.37 1022.78 1023.15 1023.48 1023.78
1011.34 1011.89 1012.34 1012.69 1012.96 1013.17 1013.35 1013.51 1013.69 1013.90 1014.15 1014.42 1014.71 1015.01 1015.30 1015.58 1015.84 1016.07 1016.29 1016.50 1016.70 1016.91 1017.12 1017.33 1017.53 1017.73 1017.92 1018.11 1018.30 1018.50 1018.72 1018.97 1019.26 1019.59 1019.97 1020.39 1020.83 1021.29 1021.75 1022.20 1022.63 1023.03 1023.38
1010.10 1010.69 1011.18 1011.59 1011.91 1012.17 1012.39 1012.61 1012.83 1013.08 1013.34 1013.63 1013.92 1014.21 1014.50 1014.76 1015.01 1015.24 1015.47 1015.70 1015.93 1016.18 1016.43 1016.69 1016.94 1017.19 1017.42 1017.64 1017.84 1018.05 1018.26 1018.50 1018.77 1019.09 1019.45 1019.86 1020.31 1020.78 1021.25 1021.73 1022.18 1022.60 1022.98
1008.79 1009.39 1009.91 1010.35 1010.72 1011.02 1011.30 1011.56 1011.82 1012.09 1012.38 1012.67 1012.96 1013.24 1013.52 1013.78 1014.03 1014.27 1014.52 1014.78 1015.06 1015.35 1015.66 1015.97 1016.28 1016.58 1016.86 1017.11 1017.35 1017.58 1017.81 1018.07 1018.35 1018.67 1019.04 1019.46 1019.91 1020.39 1020.87 1021.35 1021.80 1022.22 1022.59
1007.51 1008.09 1008.61 1009.07 1009.46 1009.81 1010.12 1010.42 1010.71 1011.00 1011.29 1011.58 1011.86 1012.14 1012.41 1012.67 1012.93 1013.19 1013.47 1013.78 1014.11 1014.46 1014.83 1015.20 1015.57 1015.92 1016.25 1016.55 1016.83 1017.10 1017.36 1017.64 1017.95 1018.30 1018.69 1019.12 1019.58 1020.06 1020.54 1021.01 1021.44 1021.84 1022.19
1006.35 1006.90 1007.40 1007.84 1008.25 1008.61 1008.95 1009.26 1009.57 1009.86 1010.15 1010.43 1010.70 1010.96 1011.22 1011.48 1011.76 1012.05 1012.37 1012.72 1013.11 1013.52 1013.95 1014.38 1014.81 1015.21 1015.58 1015.92 1016.24 1016.55 1016.85 1017.17 1017.51 1017.89 1018.30 1018.75 1019.22 1019.70 1020.17 1020.62 1021.04 1021.40 1021.72
1005.43 1005.91 1006.36 1006.78 1007.17 1007.53 1007.87 1008.18 1008.48 1008.76 1009.03 1009.29 1009.53 1009.78 1010.02 1010.28 1010.57 1010.88 1011.24 1011.64 1012.07 1012.54 1013.01 1013.49 1013.96 1014.39 1014.80 1015.18 1015.52 1015.86 1016.19 1016.54 1016.91 1017.32 1017.76 1018.23 1018.71 1019.19 1019.66 1020.09 1020.49 1020.84 1021.14
1004.81 1005.21 1005.59 1005.97 1006.32 1006.66 1006.97 1007.26 1007.53 1007.78 1008.01 1008.22 1008.43 1008.64 1008.87 1009.12 1009.40 1009.73 1010.11 1010.54 1011.00 1011.50 1012.00 1012.50 1012.98 1013.43 1013.85 1014.24 1014.60 1014.95 1015.31 1015.68 1016.07 1016.51 1016.97 1017.45 1017.95 1018.44 1018.91 1019.35 1019.74 1020.09 1020.39
1004.50 1004.82 1005.13 1005.44 1005.75 1006.03 1006.30 1006.54 1006.76 1006.96 1007.13 1007.29 1007.45 1007.61 1007.80 1008.03 1008.30 1008.62 1009.00 1009.43 1009.89 1010.39 1010.89 1011.38 1011.85 1012.29 1012.70 1013.07 1013.43 1013.78 1014.14 1014.53 1014.94 1015.39 1015.88 1016.38 1016.90 1017.41 1017.90 1018.35 1018.76 1019.13 1019.45
1004.47 1004.71 1004.95 1005.19 1005.43 1005.65 1005.85 1006.03 1006.18 1006.30 1006.41 1006.50 1006.59 1006.70 1006.84 1007.02 1007.26 1007.55 1007.91 1008.31 1008.75 1009.22 1009.68 1010.14 1010.56 1010.96 1011.33 1011.68 1012.02 1012.36 1012.72 1013.11 1013.54 1014.01 1014.51 1015.04 1015.58 1016.12 1016.63 1017.12 1017.56 1017.97 1018.34
1004.65 1004.81 1004.98 1005.15 1005.31 1005.46 1005.58 1005.68 1005.74 1005.79 1005.81 1005.83 1005.85 1005.89 1005.97 1006.10 1006.29 1006.54 1006.85 1007.20 1007.59 1007.99 1008.39 1008.78 1009.15 1009.49 1009.81 1010.12 1010.43 1010.75 1011.10 1011.50 1011.94 1012.42 1012.95 1013.50 1014.07 1014.63 1015.18 1015.70 1016.18 1016.64 1017.06
1004.94 1005.05 1005.15 1005.24 1005.32 1005.38 1005.42 1005.43 1005.40 1005.36 1005.29 1005.23 1005.18 1005.15 1005.17 1005.24 1005.37 1005.56 1005.80 1006.09 1006.41 1006.73 1007.06 1007.37 1007.66 1007.94 1008.20 1008.46 1008.74 1009.05 1009.40 1009.79 1010.24 1010.75 1011.29 1011.86 1012.45 1013.03 1013.61 1014.15 1014.67 1015.17 1015.64
1005.27 1005.32 1005.35 1005.37 1005.37 1005.34 1005.29 1005.20 1005.08 1004.94 1004.79 1004.65 1004.53 1004.44 1004.39 1004.40 1004.47 1004.60 1004.77 1004.98 1005.22 1005.46 1005.70 1005.93 1006.15 1006.36 1006.58 1006.80 1007.05 1007.35 1007.69 1008.10 1008.56 1009.07 1009.63 1010.21 1010.81 1011.40 1011.98 1012.54 1013.08 1013.60 1014.10
1005.56 1005.55 1005.52 1005.46 1005.38 1005.26 1005.10 1004.92 1004.71 1004.48 1004.25 1004.03 1003.84 1003.69 1003.59 1003.54 1003.55 1003.61 1003.72 1003.85 1004.01 1004.18 1004.34 1004.50 1004.66 1004.82 1004.99 1005.19 1005.43 1005.72 1006.07 1006.48 1006.95 1007.47 1008.03 1008.61 1009.20 1009.78 1010.34 1010.89 1011.42 1011.94 1012.46
1005.75 1005.68 1005.58 1005.45 1005.28 1005.07 1004.82 1004.54 1004.24 1003.93 1003.62 1003.33 1003.07 1002.86 1002.71 1002.61 1002.56 1002.57 1002.61 1002.69 1002.78 1002.88 1002.98 1003.09 1003.20 1003.32 1003.47 1003.66 1003.90 1004.19 1004.55 1004.97 1005.45 1005.97 1006.51 1007.08 1007.64 1008.18 1008.72 1009.23 1009.73 1010.23 1010.73
1005.81 1005.68 1005.52 1005.30 1005.04 1004.74 1004.40 1004.03 1003.64 1003.25 1002.87 1002.51 1002.20 1001.94 1001.73 1001.58 1001.49 1001.44 1001.44 1001.46 1001.49 1001.54 1001.60 1001.67 1001.75 1001.86 1002.00 1002.20 1002.44 1002.75 1003.12 1003.55 1004.03 1004.54 1005.06 1005.60 1006.11 1006.62 1007.10 1007.57 1008.02 1008.48 1008.95
1005.74 1005.55 1005.31 1005.01 1004.67 1004.28 1003.85 1003.40 1002.93 1002.46 1002.01 1001.60 1001.23 1000.91 1000.66 1000.46 1000.32 1000.23 1000.18 1000.15 1000.15 1000.16 1000.19 1000.24 1000.31 1000.41 1000.56 1000.77 1001.03 1001.35 1001.74 1002.17 1002.64 1003.13 1003.64 1004.13 1004.61 1005.06 1005.49 1005.90 1006.31 1006.73 1007.17
1005.54 1005.28 1004.97 1004.61 1004.19 1003.73 1003.22 1002.69 1002.15 1001.62 1001.11 1000.63 1000.21 999.84 999.54 999.29 999.11 998.97 998.87 998.81 998.77 998.75 998.76 998.79 998.86 998.97 999.12 999.34 999.62 999.96 1000.35 1000.78 1001.24 1001.72 1002.19 1002.65 1003.09 1003.50 1003.89 1004.26 1004.63 1005.02 1005.45
1005.24 1004.92 1004.55 1004.13 1003.65 1003.12 1002.56 1001.97 1001.38 1000.79 1000.22 999.70 999.22 998.80 998.45 998.16 997.92 997.74 997.59 997.49 997.41 997.37 997.35 997.37 997.43 997.54 997.70 997.93 998.21 998.55 998.94 999.37 999.82 1000.28 1000.73 1001.16 1001.57 1001.95 1002.32 1002.67 1003.03 1003.42 1003.84
Thickness
5686 5683 5680 5678 5675 5672 5670 5668 5665 5663 5661 5659 5658 5656 5655 5653 5651 5650 5648 5646 5644 5643 5641 5640 5639 5638 5636 5636 5635 5634 5632 5632 5630 5630 5630 5631 5631 5632 5632 5632 5632 5632 5632
5684 5681 5678 5675 5672 5669 5667 5665 5663 5661 5659 5657 5655 5653 5651 5650 5648 5646 5644 5642 5640 5639 5637 5635 5634 5633 5632 5631 5631 5630 5629 5628 5626 5625 5625 5625 5626 5626 5626 5626 5626 5626 5626
5682 5678 5675 5672 5669 5667 5665 5663 5660 5658 5656 5654 5652 5649 5648 5646 5644 5642 5641 5639 5637 5636 5634 5632 5631 5629 5628 5627 5627 5626 5625 5625 5623 5622 5620 5619 5619 5620 5619 5619 5620 5620 5621
5678 5675 5672 5670 5668 5665 5663 5660 5657 5655 5652 5651 5648 5646 5645 5643 5641 5639 5637 5636 5634 5632 5631 5629 5628 5626 5625 5624 5624 5622 5621 5620 5618 5616 5615 5613 5613 5613 5613 5612 5613 5613 5614
5675 5672 5670 5668 5665 5662 5659 5657 5655 5652 5650 5647 5644 5642 5641 5639 5638 5637 5635 5633 5631 5629 5628 5627 5626 5624 5624 5622 5621 5619 5617 5615 5613 5611 5610 5608 5607 5607 5607 5607 5607 5607 5608
5672 5669 5667 5664 5662 5659 5656 5654 5651 5649 5646 5643 5641 5639 5637 5637 5636 5635 5633 5631 5628 5626 5625 5624 5623 5621 5621 5620 5619 5618 5616 5613 5610 5608 5606 5604 5605 5604 5603 5603 5601 5600 5601
5668 5666 5663 5661 5658 5655 5653 5650 5647 5645 5642 5640 5638 5636 5634 5634 5633 5632 5630 5628 5626 5624 5622 5621 5621 5620 5618 5616 5615 5613 5612 5611 5609 5606 5604 5603 5602 5602 5600 5598 5597 5597 5597
5664 5661 5659 5657 5654 5651 5649 5646 5644 5641 5639 5636 5634 5633 5631 5631 5630 5629 5627 5625 5622 5621 5620 5619 5617 5615 5614 5612 5610 5608 5606 5605 5605 5603 5602 5601 5601 5599 5598 5596 5594 5591 5590
5659 5657 5655 5653 5650 5647 5644 5642 5640 5637 5635 5633 5632 5630 5628 5628 5627 5626 5624 5620 5618 5617 5616 5615 5614 5612 5612 5609 5606 5603 5601 5600 5600 5599 5598 5597 5596 5595 5593 5589 5586 5584 5584
5655 5653 5652 5649 5646 5643 5641 5638 5636 5634 5631 5630 5628 5626 5625 5624 5624 5623 5620 5616 5614 5612 5612 5611 5610 5609 5608 5605 5602 5599 5597 5596 5594 5593 5591 5591 5590 5588 5587 5585 5583 5580 5578
5651 5649 5646 5644 5641 5639 5636 5634 5631 5629 5626 5624 5622 5622 5621 5620 5620 5619 5616 5613 5610 5608 5607 5606 5606 5605 5604 5601 5599 5597 5595 5592 5588 5586 5584 5583 5582 5581 5580 5579 5578 5576 5573
5644 5642 5640 5638 5636 5634 5630 5628 5625 5623 5620 5618 5616 5615 5615 5614 5614 5613 5612 5610 5608 5605 5603 5602 5601 5600 5599 5596 5594 5593 5590 5586 5583 5580 5577 5576 5575 5575 5574 5573 5571 5569 5568
5637 5635 5634 5632 5630 5628 5624 5621 5618 5616 5614 5611 5610 5609 5608 5608 5607 5607 5606 5605 5602 5600 5598 5597 5596 5594 5592 5590 5588 5586 5583 5579 5576 5573 5571 5570 5569 5568 5567 5565 5563 5561 5559
5630 5628 5626 5624 5622 5620 5618 5616 5612 5610 5608 5606 5604 5603 5602 5601 5600 5599 5597 5596 5595 5593 5591 5590 5589 5586 5584 5582 5580 5578 5575 5572 5570 5568 5566 5564 5562 5561 5559 5558 5555 5552 5550
5623 5621 5619 5617 5615 5612 5610 5609 5607 5606 5604 5602 5600 5598 5596 5594 5595 5594 5591 5589 5587 5586 5583 5581 5579 5576 5574 5572 5570 5569 5567 5564 5562 5560 5558 5556 5555 5553 5551 5549 5547 5544 5542
5615 5613 5611 5609 5607 5604 5602 5600 5599 5598 5597 5596 5594 5592 5591 5591 5589 5587 5585 5584 5582 5579 5575 5573 5571 5570 5568 5565 5563 5561 5559 5557 5556 5554 5552 5550 5548 5546 5544 5541 5538 5536 5534
5608 5606 5604 5601 5599 5597 5594 5592 5589 5588 5587 5586 5585 5584 5583 5582 5581 5579 5577 5575 5573 5571 5567 5566 5564 5562 5561 5559 5557 5555 5553 5551 5549 5546 5544 5542 5541 5538 5536 5533 5530 5528 5526
5599 5598 5596 5593 5591 5589 5586 5584 5582 5579 5576 5575 5575 5574 5573 5572 5571 5570 5567 5564 5562 5560 5558 5557 5556 5555 5553 5552 5550 5548 5546 5543 5541 5539 5537 5535 5533 5530 5528 5525 5523 5520 5518
5590 5589 5587 5584 5582 5580 5578 5575 5572 5571 5568 5566 5564 5563 5563 5562 5560 5558 5557 5554 5553 5551 5549 5548 5548 5547 5546 5544 5543 5541 5538 5536 5534 5532 5530 5528 5525 5522 5520 5517 5514 5512 5509
5581 5581 5579 5575 5573 5570 5568 5565 5563 5561 5559 5557 5555 5554 5552 5550 5548 5547 5545 5544 5543 5542 5541 5540 5539 5538 5537 5536 5534 5532 5530 5528 5526 5524 5522 5520 5517 5515 5512 5509 5506 5503 5501
5572 5571 5571 5567 5564 5562 5560 5558 5556 5553 5552 5550 5548 5547 5545 5542 5540 5539 5537 5535 5534 5533 5533 5532 5531 5530 5528 5527 5525 5523 5521 5519 5517 5515 5513 5510 5508 5505 5503 5500 5498 5495 5492
5562 5561 5560 5558 5556 5554 5552 5551 5548 5546 5545 5543 5541 5538 5536 5534 5531 5530 5529 5528 5527 5526 5525 5523 5522 5521 5520 5518 5517 5515 5512 5510 5507 5505 5503 5501 5498 5496 5493 5490 5487 5485 5482
5554 5553 5552 5550 5548 5547 5544 5542 5540 5539 5537 5535 5533 5530 5528 5525 5524 5522 5521 5520 5519 5518 5516 5515 5513 5512 5511 5510 5508 5507 5505 5503 5500 5497 5494 5491 5489 5486 5484 5481 5478 5475 5471
5545 5544 5543 5541 5539 5537 5536 5535 5533 5531 5529 5527 5525 5523 5520 5518 5517 5515 5514 5513 5511 5510 5508 5507 5505 5504 5503 5501 5499 5498 5497 5495 5492 5489 5486 5483 5480 5477 5474 5471 5468 5464 5461
5536 5535 5534 5533 5531 5529 5528 5526 5525 5523 5521 5519 5517 5515 5513 5511 5509 5508 5506 5505 5503 5502 5500 5498 5497 5496 5494 5492 5491 5489 5488 5485 5483 5480 5477 5474 5470 5467 5464 5460 5457 5453 5450
5526 5526 5525 5523 5522 5520 5519 5517 5516 5514 5512 5510 5508 5507 5505 5503 5501 5500 5498 5497 5495 5494 5492 5490 5489 5488 5486 5484 5482 5481 5479 5476 5473 5470 5467 5464 5460 5456 5453 5449 5446 5442 5439